Fort Lauderdale, FL

7:39 AM EDT on July 22, 2017 (GMT -0400)
Fort Lauderdale Executive

Weather History for KFXE - August, 2014

Change the Weather History Date:

Sunday, August 10, 2014

  Actual Average Record
Temperature  
Mean Temperature 86 °F -  
Max Temperature 93 °F 91 °F 98 °F (1987)
Min Temperature 80 °F 75 °F 68 °F (1977)
Cooling Degree Days 20    
Growing Degree Days 36 (Base 50)    
Moisture  
Dew Point 76 °F    
Average Humidity 78    
Maximum Humidity 94    
Minimum Humidity 59    
Precipitation  
Precipitation 0.07 in - - ()
Sea Level Pressure  
Sea Level Pressure 30.05 in    
Wind  
Wind Speed 3 mph (South)    
Max Wind Speed 12 mph    
Max Gust Speed 17 mph    
Visibility 10 miles    
Events Rain , Thunderstorm , Tornado    
Averages and records for this station are not official NWS values.
T = Trace of Precipitation, MM = Missing Value Source: NWS Daily Summary

Daily Weather History Graph

Daily Weather History Graph

Search for Another Location

Airport or City:

Trip Planner

Search our weather history database for the weather conditions in past years. The results will help you decide how hot, cold, wet, or windy it might be!

Date:

Astronomy

Aug. 10, 2014 Rise Set
Actual Time 6:50 AM EDT 8:00 PM EDT
Civil Twilight 6:26 AM EDT 8:25 PM EDT
Nautical Twilight 5:57 AM EDT 8:54 PM EDT
Astronomical Twilight 5:27 AM EDT 9:23 PM EDT
Moon 7:54 PM EDT (8/10) 6:36 AM EDT (8/10)
Length of Visible Light 13h 58m
Length of Day
13h 10m
Full, 100% of the Moon is Illuminated
Aug 10
Full
Aug 10
Full
Aug 17
Last Quarter
Aug 25
New
Sep 2
First Quarter

Hourly Weather History & Observations

Time (EDT) Temp. Heat Index Dew Point Humidity Pressure Visibility Wind Dir Wind Speed Gust Speed Precip Events Conditions
12:53 AM 81.0 °F 88.6 °F 78.1 °F 91% 30.07 in 10.0 mi Calm Calm - N/A   Clear
1:53 AM 81.0 °F 88.6 °F 78.1 °F 91% 30.06 in 10.0 mi Calm Calm - N/A   Clear
2:53 AM 81.0 °F 89.2 °F 79.0 °F 94% 30.06 in 10.0 mi Calm Calm - N/A   Clear
3:53 AM 81.0 °F 89.2 °F 79.0 °F 94% 30.05 in 10.0 mi Calm Calm - N/A   Unknown
4:53 AM 80.6 °F 88.1 °F 78.8 °F 94% 30.03 in 10.0 mi Calm Calm - N/A   Clear
5:53 AM 81.0 °F 88.6 °F 78.1 °F 91% 30.05 in 10.0 mi Calm Calm - N/A   Clear
6:53 AM 80.1 °F 86.4 °F 78.1 °F 94% 30.06 in 10.0 mi Calm Calm - N/A   Clear
7:08 AM 80.1 °F 85.8 °F 77.0 °F 90% 30.05 in 10.0 mi SSE 3.5 mph - N/A Tornado Funnel Cloud
7:10 AM 80.1 °F 85.8 °F 77.0 °F 90% 30.05 in 10.0 mi Calm Calm - N/A   Clear
7:11 AM 80.1 °F 86.4 °F 78.1 °F 94% 30.05 in 10.0 mi Calm Calm - N/A   Clear
7:53 AM 81.0 °F 89.2 °F 79.0 °F 94% 30.06 in 10.0 mi West 3.5 mph - N/A   Scattered Clouds
8:53 AM 84.0 °F 96.0 °F 79.0 °F 85% 30.08 in 10.0 mi WSW 3.5 mph - N/A   Scattered Clouds
9:53 AM 87.8 °F 99.7 °F 77.0 °F 70% 30.08 in 10.0 mi Calm Calm - N/A   Scattered Clouds
10:53 AM 89.1 °F 101.4 °F 77.0 °F 67% 30.09 in 10.0 mi SSW 6.9 mph - N/A   Scattered Clouds
11:53 AM 91.9 °F 103.9 °F 75.9 °F 59% 30.09 in 10.0 mi North - - N/A   Scattered Clouds
12:53 PM 91.0 °F 101.6 °F 75.0 °F 59% 30.07 in 10.0 mi SE 4.6 mph - N/A   Scattered Clouds
1:53 PM 91.9 °F 103.9 °F 75.9 °F 59% 30.06 in 10.0 mi SSE 8.1 mph - N/A   Scattered Clouds
2:53 PM 91.9 °F 105.9 °F 77.0 °F 62% 30.04 in 10.0 mi SE 9.2 mph 17.3 mph N/A   Scattered Clouds
3:53 PM 91.4 °F 105.1 °F 77.0 °F 63% 30.01 in 10.0 mi SE 11.5 mph - N/A   Scattered Clouds
4:53 PM 90.0 °F 102.5 °F 77.0 °F 65% 30.02 in 10.0 mi East 8.1 mph - N/A   Mostly Cloudy
5:28 PM 86.0 °F 96.0 °F 75.9 °F 72% 30.02 in 10.0 mi WNW 9.2 mph - 0.05 in Rain , Thunderstorm Light Thunderstorms and Rain
5:53 PM 84.9 °F 91.4 °F 73.0 °F 67% 30.02 in 10.0 mi SSE 9.2 mph - 0.07 in   Scattered Clouds
6:53 PM 84.0 °F 89.0 °F 71.1 °F 65% 30.02 in 10.0 mi SSW 4.6 mph - N/A   Scattered Clouds
7:53 PM 84.2 °F 88.4 °F 69.8 °F 62% 30.01 in 10.0 mi ESE 6.9 mph - N/A   Clear
8:53 PM 84.9 °F 94.1 °F 75.9 °F 74% 30.03 in 10.0 mi SSE 6.9 mph - N/A   Partly Cloudy
9:53 PM 82.0 °F 87.4 °F 73.0 °F 74% 30.07 in 10.0 mi WSW 5.8 mph - N/A   Scattered Clouds
10:53 PM 82.0 °F 87.4 °F 73.0 °F 74% 30.07 in 10.0 mi West 3.5 mph - N/A   Scattered Clouds